Overview Statistics Trail Chart Weather Telemetry Raw packets
 

This is the latest recevied weather packets stored in our database for station/object KE7PGE-13. If no packets are shown the sender has not sent any weather packets the latest 10 day(s).

<< 1 2 3 4 5 6 >>
Time Temp. Humidity Pressure Rain* Wind** Luminosity Snow
1788293405 17.78° C 79% 1011.4 hPa 0 mm - - -
1788289805 18.33° C 79% 1011.3 hPa 0 mm - - -
1788271805 13.89° C 92% 1010.2 hPa 0 mm - - -
1788253804 15° C 84% 1009.7 hPa 0 mm - - -
1788228604 25° C 57% 1009.4 hPa 0 mm - - -
1788221405 27.22° C 51% 1010.1 hPa 0 mm - - -
1788219605 27.22° C 51% 1010.3 hPa 0 mm - - -
1788212404 26.11° C 50% 1011.6 hPa 0 mm - - -
1788189005 10.56° C 93% 1014.7 hPa 0 mm - - -
1788187204 10.56° C 92% 1014.6 hPa 0 mm - - -
1788185405 11.11° C 92% 1014.7 hPa 0 mm - - -
1788181805 11.11° C 91% 1015 hPa 0 mm - - -
1788178205 11.11° C 90% 1015.4 hPa 0 mm - - -
1788167405 12.78° C 86% 1017 hPa 0 mm - - -
1788165605 13.33° C 85% 1017.2 hPa 0 mm - - -
1788163807 13.33° C 85% 1017.4 hPa 0 mm - - -
1788160204 13.89° C 82% 1018 hPa 0 mm - - -
1788154805 15° C 79% 1018.8 hPa 0 mm - - -
1788147604 17.22° C 69% 1018.5 hPa 0 mm - - -
1788144004 20° C 62% 1019.1 hPa 0 mm - - -
1788142204 20.56° C 59% 1019.2 hPa 0 mm - - -
1788138604 22.22° C 56% 1019.6 hPa 0 mm - - -
1788124204 18.89° C 67% 1021.2 hPa 0 mm - - -
1788113404 15° C 78% 1021.6 hPa 0 mm - - -
1788108005 13.33° C 93% 1021.6 hPa 0 mm - - -

* Rain latest hour (hover to see other rain measurements)
** Current wind speed in m/s (hover to see current wind gust speed)